EW5238 Weather Reports


Display with metric or nautical units.
time (UTC)temp
F
wind
direction
speed
MPH
gust
MPH
rain 1hr
in
rain 24hr
in
rain mn
in
humidity
%
barometer
mb
20260507090421 62 190 1.0 3.0 0.00 0.00 0.00 1 1011.8
20260507085921 62 190 1.0 4.0 0.00 0.00 0.00 1 1011.8
20260507085421 62 190 1.0 4.0 0.00 0.00 0.00 1 1011.5
20260507084917 62 190 1.0 4.0 0.00 0.00 0.00 1 1011.7
20260507084417 62 190 1.0 5.0 0.00 0.00 0.00 1 1011.8
20260507083917 62 190 2.0 6.0 0.00 0.00 0.00 1 1011.4
20260507083418 62 190 2.0 6.0 0.00 0.00 0.00 1 1011.5
20260507083150 62 190 2.0 6.0 0.00 0.00 0.00 1 1011.7
20260507082412 62 190 1.0 4.0 0.00 0.00 0.00 1 1011.5
20260507081913 62 190 1.0 4.0 0.00 0.00 0.00 1 1011.8
20260507081406 62 190 1.0 5.0 0.00 0.00 0.00 3 1012.1
20260507080910 62 190 1.0 5.0 0.00 0.00 0.00 2 1012.2
20260507080409 62 190 1.0 4.0 0.00 0.00 0.00 4 1012.1
20260507080140 62 190 1.0 3.0 0.00 0.00 0.00 5 1012.2
20260507075408 62 190 1.0 6.0 0.00 0.00 0.00 5 1012.1
20260507074903 62 190 2.0 6.0 0.00 0.00 0.00 7 1011.9
20260507074408 62 190 2.0 5.0 0.00 0.00 0.00 6 1012.2
20260507074136 62 190 2.0 5.0 0.00 0.00 0.00 9 1012.1
20260507073403 62 190 2.0 6.0 0.00 0.00 0.00 11 1011.6
20260507072903 62 190 2.0 6.0 0.00 0.00 0.00 11 1011.9
20260507072636 62 190 2.0 5.0 0.00 0.00 0.00 11 1012.2
20260507071902 62 190 1.0 4.0 0.00 0.00 0.00 11 1012.2
20260507071400 62 190 1.0 4.0 0.00 0.00 0.00 11 1011.8
20260507070902 62 190 1.0 4.0 0.00 0.00 0.00 11 1012.7
20260507070632 62 190 2.0 4.0 0.00 0.00 0.00 12 1012.4
20260507065903 62 190 2.0 4.0 0.00 0.00 0.00 14 1012.3
20260507065355 62 190 2.0 5.0 0.00 0.00 0.00 15 1012.1
20260507064856 62 190 2.0 6.0 0.00 0.00 0.00 16 1012.5
20260507064353 62 190 2.0 6.0 0.00 0.00 0.00 17 1012.5
20260507063859 62 190 2.0 6.0 0.00 0.00 0.00 17 1012.3
20260507063354 62 190 1.0 5.0 0.00 0.00 0.00 17 1012.4
20260507063132 62 190 2.0 7.0 0.00 0.00 0.00 18 1012.7
20260507062353 62 190 3.0 7.0 0.00 0.00 0.00 20 1012.4
20260507061855 62 190 2.0 7.0 0.00 0.00 0.00 21 1013.0
20260507061355 62 190 3.0 7.0 0.00 0.00 0.00 21 1012.7
20260507060855 62 190 3.0 7.0 0.00 0.00 0.00 22 1012.4
20260507060351 62 190 2.0 7.0 0.00 0.00 0.00 23 1013.0
20260507055851 62 190 3.0 8.0 0.00 0.00 0.00 24 1012.1
20260507055351 62 190 4.0 8.0 0.00 0.00 0.00 25 1012.5
20260507055122 62 190 3.0 8.0 0.00 0.00 0.00 28 1012.8
20260507054623 63 190 3.0 7.0 0.00 0.00 0.00 29 1012.1
20260507053856 63 190 3.0 6.0 0.00 0.00 0.00 30 1012.7
20260507053351 63 190 2.0 6.0 0.00 0.00 0.00 31 1012.4
20260507052852 63 190 2.0 5.0 0.00 0.00 0.00 31 1012.4
20260507052348 63 190 3.0 7.0 0.00 0.00 0.00 32 1011.8
20260507051853 63 190 3.0 7.0 0.00 0.00 0.00 33 1012.1
20260507051622 63 190 2.0 6.0 0.00 0.00 0.00 33 1012.2
20260507051124 63 190 2.0 6.0 0.00 0.00 0.00 34 1011.8
20260507050346 63 190 2.0 7.0 0.00 0.00 0.00 35 1011.9
20260507045838 63 190 2.0 7.0 0.00 0.00 0.00 36 1012.5
20260507045617 63 190 3.0 6.0 0.00 0.00 0.00 37 1012.5
20260507044841 63 190 3.0 9.0 0.00 0.00 0.00 38 1012.2
20260507044341 63 190 3.0 9.0 0.00 0.00 0.00 37 1012.4
20260507043339 63 190 2.0 7.0 0.00 0.00 0.00 35 1012.1
20260507042841 63 190 3.0 7.0 0.00 0.00 0.00 36 1012.1
20260507042339 63 190 3.0 7.0 0.00 0.00 0.00 36 1011.9
20260507041842 63 190 3.0 7.0 0.00 0.00 0.00 36 1012.1
20260507041341 63 190 3.0 7.0 0.00 0.00 0.00 36 1012.1
20260507040339 64 190 4.0 11.0 0.00 0.00 0.00 37 1012.1
20260507035843 64 190 5.0 11.0 0.00 0.00 0.00 37 1011.8
20260507035340 64 190 4.0 9.0 0.00 0.00 0.00 34 1011.8
20260507034838 64 190 4.0 9.0 0.00 0.00 0.00 34 1011.8
20260507034337 64 190 5.0 10.0 0.00 0.00 0.00 34 1011.9
20260507033832 64 190 4.0 10.0 0.00 0.00 0.00 35 1011.8
20260507033327 64 190 3.0 7.0 0.00 0.00 0.00 34 1011.6
20260507033103 64 190 4.0 8.0 0.00 0.00 0.00 33 1011.6
20260507032836 64 190 4.0 8.0 0.00 0.00 0.00 33 1011.6
20260507032325 64 190 4.0 8.0 0.00 0.00 0.00 35 1011.6
20260507031826 64 190 3.0 7.0 0.00 0.00 0.00 34 1011.4
20260507031558 64 190 3.0 8.0 0.00 0.00 0.00 34 1011.6
20260507030831 64 190 3.0 9.0 0.00 0.00 0.00 34 1011.4
20260507030329 64 190 4.0 10.0 0.00 0.00 0.00 34 1011.2
20260507025836 64 190 5.0 10.0 0.00 0.00 0.00 32 1011.4
20260507025323 64 190 5.0 9.0 0.00 0.00 0.00 34 1011.3
20260507024822 64 190 3.0 9.0 0.00 0.00 0.00 35 1011.3
20260507024323 64 190 4.0 9.0 0.00 0.00 0.00 32 1011.4
20260507024104 64 190 4.0 9.0 0.00 0.00 0.00 34 1011.0
20260507023323 64 190 4.0 9.0 0.00 0.00 0.00 34 1010.9
20260507022829 64 190 4.0 7.0 0.00 0.00 0.00 34 1010.7
20260507022318 64 190 4.0 9.0 0.00 0.00 0.00 34 1010.7
20260507022049 64 190 5.0 11.0 0.00 0.00 0.00 36 1010.5
20260507021318 64 190 5.0 11.0 0.00 0.00 0.00 37 1010.3
20260507020819 64 190 5.0 10.0 0.00 0.00 0.00 35 1010.5
20260507020317 64 190 5.0 10.0 0.00 0.00 0.00 37 1010.4
20260507015819 64 190 4.0 8.0 0.00 0.00 0.00 36 1010.3
20260507015324 64 190 4.0 9.0 0.00 0.00 0.00 37 1010.3
20260507015049 64 190 4.0 11.0 0.00 0.00 0.00 38 1010.2
20260507014317 64 190 4.0 11.0 0.00 0.00 0.00 39 1009.9
20260507013818 64 190 4.0 9.0 0.00 0.00 0.00 38 1009.8
20260507013315 64 190 4.0 9.0 0.00 0.00 0.00 40 1009.8
20260507012819 65 190 4.0 10.0 0.00 0.00 0.00 41 1009.8
20260507012316 65 190 4.0 10.0 0.00 0.00 0.00 44 1009.4
20260507012047 65 190 4.0 10.0 0.00 0.00 0.00 45 1009.5
20260507011539 65 190 5.0 11.0 0.00 0.00 0.00 48 1009.4
20260507010816 65 190 6.0 11.0 0.00 0.00 0.00 51 1009.4
20260507010539 65 190 6.0 12.0 0.00 0.00 0.00 51 1009.4
20260507005808 66 190 5.0 12.0 0.00 0.00 0.00 53 1009.3
20260507005306 66 190 5.0 10.0 0.00 0.00 0.00 53 1009.2
20260507004804 66 190 6.0 14.0 0.00 0.00 0.00 53 1009.2
20260507004305 67 190 5.0 14.0 0.00 0.00 0.00 55 1009.1
20260507003803 67 190 3.0 9.0 0.00 0.00 0.00 55 1009.1
20260507003314 67 190 4.0 10.0 0.00 0.00 0.00 55 1009.0
20260507002804 67 190 6.0 15.0 0.00 0.00 0.00 57 1009.0
20260507002543 67 190 6.0 15.0 0.00 0.00 0.00 59 1009.0
20260507001806 67 190 6.0 13.0 0.00 0.00 0.00 60 1009.0
20260507001303 68 190 6.0 13.0 0.00 0.00 0.00 60 1008.7
20260507000807 68 190 6.0 11.0 0.00 0.00 0.00 61 1008.7
20260507000259 68 190 5.0 12.0 0.00 0.00 0.00 61 1008.7
20260506235759 69 190 4.0 12.0 0.00 0.00 0.00 61 1008.6
20260506235540 69 190 4.0 10.0 0.00 0.00 0.00 60 1008.6
20260506234802 69 190 3.0 8.0 0.00 0.00 0.00 60 1008.5
20260506234254 69 190 3.0 7.0 0.00 0.00 0.00 59 1008.4
20260506233755 69 190 4.0 8.0 0.00 0.00 0.00 59 1008.4
20260506233247 69 190 5.0 12.0 0.00 0.00 0.00 61 1008.4
20260506232757 70 190 5.0 12.0 0.00 0.00 0.00 61 1008.2
20260506232249 70 190 4.0 11.0 0.00 0.00 0.00 63 1008.1
20260506232013 70 190 4.0 9.0 0.00 0.00 0.00 61 1007.9
20260506231242 70 190 5.0 9.0 0.00 0.00 0.00 61 1007.9
20260506230745 71 190 5.0 9.0 0.00 0.00 0.00 60 1007.9
20260506230507 70 190 5.0 12.0 0.00 0.00 0.00 60 1008.1
20260506225736 70 190 6.0 12.0 0.00 0.00 0.00 61 1008.1
20260506225240 70 190 7.0 12.0 0.00 0.00 0.00 62 1008.2
20260506224239 70 190 7.0 14.0 0.00 0.00 0.00 61 1007.9
20260506223735 70 190 6.0 12.0 0.00 0.00 0.00 60 1007.9
20260506223230 70 190 7.0 17.0 0.00 0.00 0.00 60 1008.0
20260506222729 70 190 6.0 17.0 0.00 0.00 0.00 61 1008.1
20260506222229 70 190 7.0 15.0 0.00 0.00 0.00 59 1007.8
20260506221733 70 190 9.0 16.0 0.00 0.00 0.00 60 1007.9
20260506221229 71 190 10.0 16.0 0.00 0.00 0.00 62 1007.9
20260506220726 71 190 10.0 16.0 0.00 0.00 0.00 61 1007.9
20260506220226 72 190 10.0 16.0 0.00 0.00 0.00 60 1007.7
20260506215728 73 190 9.0 18.0 0.00 0.00 0.00 59 1007.7
20260506215227 74 190 8.0 18.0 0.00 0.00 0.00 59 1007.6
20260506214958 76 190 8.0 15.0 0.00 0.00 0.00 59 1007.4
20260506214459 77 190 6.0 14.0 0.00 0.00 0.00 60 1007.3
20260506214003 79 190 4.0 9.0 0.00 0.00 0.00 48 1007.2
20260506213452 80 190 4.0 8.0 0.00 0.00 0.00 40 1007.1
20260506212721 80 190 5.0 9.0 0.00 0.00 0.00 43 1007.1
20260506212218 80 190 5.0 9.0 0.00 0.00 0.00 47 1007.1
20260506211721 80 190 4.0 9.0 0.00 0.00 0.00 50 1007.1
20260506211222 80 190 4.0 6.0 0.00 0.00 0.00 50 1007.1
20260506210720 81 190 3.0 7.0 0.00 0.00 0.00 51 1007.2
20260506210217 81 190 3.0 7.0 0.00 0.00 0.00 56 1007.2
20260506205715 82 190 2.0 6.0 0.00 0.00 0.00 59 1007.1
20260506205447 83 190 1.0 5.0 0.00 0.00 0.00 56 1007.1
20260506204715 84 190 1.0 5.0 0.00 0.00 0.00 59 1007.3
20260506204217 85 190 1.0 5.0 0.00 0.00 0.00 57 1007.1
20260506203713 85 190 1.0 3.0 0.00 0.00 0.00 58 1007.0
20260506203204 85 190 1.0 3.0 0.00 0.00 0.00 60 1007.2
20260506202704 85 190 0.0 2.0 0.00 0.00 0.00 59 1007.1
20260506201658 84 190 1.0 5.0 0.00 0.00 0.00 55 1007.3
20260506201200 83 190 1.0 4.0 0.00 0.00 0.00 57 1007.4
20260506200652 83 190 0.0 3.0 0.00 0.00 0.00 57 1007.4
20260506200152 83 190 0.0 3.0 0.00 0.00 0.00 57 1007.4
20260506195656 83 190 1.0 5.0 0.00 0.00 0.00 56 1007.3
20260506195152 83 190 1.0 5.0 0.00 0.00 0.00 58 1007.3
20260506194653 82 190 0.0 3.0 0.00 0.00 0.00 53 1007.3
20260506194153 81 190 1.0 3.0 0.00 0.00 0.00 53 1007.4
20260506193648 81 190 0.0 3.0 0.00 0.00 0.00 50 1007.3
20260506193149 80 190 1.0 4.0 0.00 0.00 0.00 52 1007.4
20260506192648 80 190 1.0 4.0 0.00 0.00 0.00 55 1007.5
20260506192145 79 190 1.0 4.0 0.00 0.00 0.00 51 1007.5
20260506191643 78 190 1.0 4.0 0.00 0.00 0.00 51 1007.6
20260506190641 77 190 2.0 4.0 0.00 0.00 0.00 42 1007.8
20260506190410 76 190 1.0 4.0 0.00 0.00 0.00 14 1007.9
20260506185637 74 190 2.0 5.0 0.00 0.00 0.00 22 1007.9
20260506185136 74 190 2.0 5.0 0.00 0.00 0.00 20 1008.1
20260506184636 73 190 1.0 4.0 0.00 0.00 0.00 15 1008.1
20260506184131 73 190 2.0 5.0 0.00 0.00 0.00 21 1008.0
20260506183903 72 190 2.0 6.0 0.00 0.00 0.00 15 1008.2
20260506183133 73 190 3.0 6.0 0.00 0.00 0.00 31 1008.3
20260506182633 73 190 4.0 7.0 0.00 0.00 0.00 35 1008.4
20260506182405 73 190 5.0 11.0 0.00 0.00 0.00 32 1008.3
20260506181634 73 190 6.0 11.0 0.00 0.00 0.00 32 1008.3
20260506181128 73 190 5.0 13.0 0.00 0.00 0.00 35 1008.3
20260506180632 73 190 6.0 13.0 0.00 0.00 0.00 27 1008.3
20260506180121 74 190 6.0 12.0 0.00 0.00 0.00 41 1008.4
20260506175851 75 190 5.0 10.0 0.00 0.00 0.00 46 1008.4
20260506175114 76 190 4.0 10.0 0.00 0.00 0.00 54 1008.5
20260506174855 80 190 1.0 8.0 0.00 0.00 0.00 57 1008.6
20260506174114 81 190 0.0 0.0 0.00 0.00 0.00 27 1008.6
20260506173620 81 190 0.0 0.0 0.00 0.00 0.00 22 1008.7
20260506173115 81 190 0.0 0.0 0.00 0.00 0.00 24 1008.8
20260506172610 81 190 0.0 0.0 0.00 0.00 0.00 21 1008.8
20260506172110 81 190 0.0 0.0 0.00 0.00 0.00 20 1008.9
20260506171616 80 190 0.0 0.0 0.00 0.00 0.00 10 1008.9
20260506171110 80 190 0.0 0.0 0.00 0.00 0.00 7 1009.0
20260506170611 80 190 0.0 0.0 0.00 0.00 0.00 8 1009.1
20260506170111 80 190 0.0 0.0 0.00 0.00 0.00 9 1009.3
20260506165611 80 190 0.0 0.0 0.00 0.00 0.00 1 1009.2
20260506165111 80 190 0.0 0.0 0.00 0.00 0.00 1 1009.2
20260506164611 80 190 0.0 0.0 0.00 0.00 0.00 1 1009.3
20260506164117 80 190 0.0 0.0 0.00 0.00 0.00 1 1009.3
20260506163612 80 190 0.0 0.0 0.00 0.00 0.00 1 1009.3
20260506163106 80 190 0.0 0.0 0.00 0.00 0.00 1 1009.4
20260506162838 80 190 0.0 0.0 0.00 0.00 0.00 1 1009.3
20260506162105 79 190 0.0 0.0 0.00 0.00 0.00 1 1009.4
20260506161102 79 190 0.0 0.0 0.00 0.00 0.00 1 1009.0
20260506160603 79 190 0.0 0.0 0.00 0.00 0.00 1 1008.9
20260506160329 79 190 0.0 0.0 0.00 0.00 0.00 1 1009.0
20260506155604 79 190 0.0 0.0 0.00 0.00 0.00 1 1008.7
20260506155057 78 190 0.0 0.0 0.00 0.00 0.00 1 1008.6
20260506154827 78 190 0.0 0.0 0.00 0.00 0.00 1 1008.6
20260506154325 79 190 0.0 0.0 0.00 0.00 0.00 1 1008.5
20260506153552 78 190 0.0 0.0 0.00 0.00 0.00 1 1008.4
20260506153047 78 190 0.0 0.0 0.00 0.00 0.00 1 1008.1
20260506152546 78 190 0.0 2.0 0.00 0.00 0.00 1 1008.1
20260506152316 78 190 0.0 2.0 0.00 0.00 0.00 1 1008.1
20260506151543 78 190 0.0 2.0 0.00 0.00 0.00 1 1008.2
20260506151318 78 190 0.0 2.0 0.00 0.00 0.00 1 1008.2
20260506150545 78 190 0.0 2.0 0.00 0.00 0.00 1 1008.2
20260506145535 78 190 0.0 0.0 0.00 0.00 0.00 1 1008.6
20260506145307 78 190 0.0 0.0 0.00 0.00 0.00 1 1008.4
20260506144531 78 190 0.0 0.0 0.00 0.00 0.00 1 1008.4
20260506144028 78 190 1.0 3.0 0.00 0.00 0.00 1 1008.3
20260506143528 78 190 1.0 4.0 0.00 0.00 0.00 1 1008.0
20260506143027 78 190 2.0 4.0 0.00 0.00 0.00 1 1007.8
20260506142755 78 190 2.0 5.0 0.00 0.00 0.00 1 1007.9
20260506142256 78 190 2.0 5.0 0.00 0.00 0.00 1 1007.8
20260506141523 78 190 2.0 4.0 0.00 0.00 0.00 1 1007.6
20260506141021 78 190 2.0 5.0 0.00 0.00 0.00 1 1007.4
20260506140520 78 190 2.0 5.0 0.00 0.00 0.00 1 1007.4
20260506140016 78 190 1.0 3.0 0.00 0.00 0.00 1 1007.4
20260506135517 78 190 1.0 5.0 0.00 0.00 0.00 1 1007.4
20260506135014 77 190 2.0 5.0 0.00 0.00 0.00 1 1007.3
20260506134515 77 190 2.0 5.0 0.00 0.00 0.00 1 1007.4
20260506134012 77 190 2.0 5.0 0.00 0.00 0.00 1 1007.4
20260506133743 77 190 1.0 6.0 0.00 0.00 0.00 1 1007.4
20260506133237 77 190 1.0 6.0 0.00 0.00 0.00 1 1007.4
20260506132503 77 190 0.0 3.0 0.00 0.00 0.00 1 1007.5
20260506131503 77 190 1.0 2.0 0.00 0.00 0.00 1 1007.6
20260506131232 77 190 1.0 2.0 0.00 0.00 0.00 1 1007.6
20260506130500 0 0.0 0.0 0.00 0.00 0.00 1007.6
20260506130220 0 0.0 0.0 0.00 0.00 0.00 1007.5
20260506125625 0 0.0 0.0 0.00 0.00 0.00 1007.5
20260506124858 0 0.0 0.0 0.00 0.00 0.00 1007.4
20260506124258 0 0.0 0.0 0.00 0.00 0.00 1007.4
20260506123748 0 0.0 0.0 0.00 0.00 0.00 1007.4
20260506123157 0 0.0 0.0 0.00 0.00 0.00 1007.4
20260506122652 0 0.0 0.0 0.00 0.00 0.00 1007.3
20260506122059 0 0.0 0.0 0.00 0.00 0.00 1007.3
20260506121830 0 0.0 0.0 0.00 0.00 0.00 1007.3
20260506121043 0 0.0 0.0 0.00 0.00 0.00 1007.3
20260506120722 0 0.0 0.0 0.00 0.00 0.00 1007.3
20260506115852 0 0.0 0.0 0.00 0.00 0.00 1007.2
20260506115307 0 0.0 0.0 0.00 0.00 0.00 1007.1
20260506114759 0 0.0 0.0 0.00 0.00 0.00 1007.2
20260506114157 76 0.0 0.0 0.00 0.00 0.00 1 1007.0
20260506113652 76 190 1.0 0.0 0.00 0.00 0.00 1 1007.0
20260506113058 76 190 1.0 3.0 0.00 0.00 0.00 1 1006.8
20260506112558 76 190 1.0 4.0 0.00 0.00 0.00 1 1006.8
20260506112051 76 190 1.0 6.0 0.00 0.00 0.00 1 1006.8
20260506111548 77 190 1.0 6.0 0.00 0.00 0.00 1 1006.7
20260506111321 77 190 0.0 0.0 0.00 0.00 0.00 1 1006.8
20260506110543 77 190 0.0 0.0 0.00 0.00 0.00 1 1006.8
20260506110311 77 190 0.0 0.0 0.00 0.00 0.00 1 1006.9
20260506105541 77 190 0.0 0.0 0.00 0.00 0.00 1 1006.8
20260506105036 77 190 0.0 0.0 0.00 0.00 0.00 1 1006.7
20260506104536 77 190 0.0 0.0 0.00 0.00 0.00 1 1006.7
20260506104304 77 190 0.0 0.0 0.00 0.00 0.00 1 1006.6
20260506103533 77 190 1.0 4.0 0.00 0.00 0.00 1 1006.5
20260506103030 77 190 1.0 4.0 0.00 0.00 0.00 1 1006.5
20260506102527 77 190 1.0 4.0 0.00 0.00 0.00 1 1006.3
20260506101804 77 190 2.0 6.0 0.00 0.00 0.00 1 1006.1
20260506101020 77 190 3.0 8.0 0.00 0.00 0.00 1 1006.1
20260506100751 77 190 3.0 8.0 0.00 0.00 0.00 1 1005.9
20260506100025 77 190 3.0 8.0 0.00 0.00 0.00 1 1005.9
20260506095519 77 190 3.0 8.0 0.00 0.00 0.00 1 1005.9
20260506095018 77 190 3.0 7.0 0.00 0.00 0.00 1 1005.9
20260506094747 76 190 3.0 7.0 0.00 0.00 0.00 1 1005.9
20260506094017 76 190 3.0 7.0 0.00 0.00 0.00 1 1005.8
20260506093517 76 190 3.0 6.0 0.00 0.00 0.00 1 1005.8
20260506093017 76 190 3.0 7.0 0.00 0.00 0.00 1 1005.7
20260506092748 76 190 4.0 8.0 0.00 0.00 0.00 1 1005.8
20260506092015 76 190 4.0 8.0 0.00 0.00 0.00 1 1005.8
20260506091513 76 190 4.0 8.0 0.00 0.00 0.00 1 1005.7
20260506091011 76 190 4.0 10.0 0.00 0.00 0.00 1 1005.7